Mount Holly, NJ

3:19 PM EST on January 19, 2018 (GMT -0500)
South Jersey Regional

Weather History for KVAY - September, 2012

Change the Weather History Date:

Saturday, September 1, 2012

  Actual Average (KPNE) Record (KPNE)
Temperature  
Mean Temperature 81 °F -  
Max Temperature 91 °F 79 °F 96 °F (2010)
Min Temperature 70 °F 61 °F 55 °F (2017)
Cooling Degree Days 16    
Growing Degree Days 31 (Base 50)    
Moisture  
Dew Point 65 °F    
Average Humidity 64    
Maximum Humidity 90    
Minimum Humidity 30    
Precipitation  
Precipitation 0.00 in - - ()
Sea Level Pressure  
Sea Level Pressure 30.00 in    
Wind  
Wind Speed 4 mph (NW)    
Max Wind Speed 8 mph    
Max Gust Speed -    
Visibility 10 miles    
Events      
Averages and records for this station are not official NWS values.
T = Trace of Precipitation, MM = Missing Value Source: NWS Daily Summary

Daily Weather History Graph

Daily Weather History Graph

Search for Another Location

Airport or City:

Trip Planner

Search our weather history database for the weather conditions in past years. The results will help you decide how hot, cold, wet, or windy it might be!

Date:

Astronomy

Sep. 01, 2012 Rise Set
Actual Time 6:27 AM EDT 7:30 PM EDT
Civil Twilight 5:59 AM EDT 7:57 PM EDT
Nautical Twilight 5:26 AM EDT 8:30 PM EDT
Astronomical Twilight 4:52 AM EDT 9:04 PM EDT
Moon 7:45 PM EDT (9/1) 7:32 AM EDT (9/1)
Length of Visible Light 13h 57m
Length of Day
13h 02m
Full, 99% of the Moon is Illuminated
Sep 1
Full
Sep 8
Last Quarter
Sep 15
New
Sep 22
First Quarter
Sep 29
Full

Hourly Weather History & Observations

Time (EDT) Temp. Heat Index Dew Point Humidity Pressure Visibility Wind Dir Wind Speed Gust Speed Precip Events Conditions
12:54 AM 77.0 °F - 62.1 °F 60% 29.97 in 10.0 mi WSW 6.9 mph - N/A   Clear
1:54 AM 75.9 °F - 64.0 °F 67% 29.96 in 10.0 mi SW 4.6 mph - N/A   Clear
2:54 AM 75.0 °F - 64.0 °F 69% 29.96 in 10.0 mi SW 4.6 mph - N/A   Clear
3:54 AM 72.0 °F - 64.9 °F 78% 29.96 in 10.0 mi Calm Calm - N/A   Clear
4:54 AM 72.0 °F - 64.9 °F 78% 29.97 in 10.0 mi Calm Calm - N/A   Clear
5:54 AM 71.1 °F - 64.9 °F 81% 29.98 in 10.0 mi Calm Calm - N/A   Clear
6:54 AM 73.0 °F - 64.9 °F 76% 30.00 in 9.0 mi Calm Calm - N/A   Clear
7:54 AM 77.0 °F - 64.9 °F 66% 30.00 in 10.0 mi Calm Calm - N/A   Clear
8:54 AM 80.1 °F 82.1 °F 66.0 °F 62% 30.01 in 10.0 mi NW 4.6 mph - N/A   Clear
9:54 AM 84.0 °F 86.3 °F 66.0 °F 55% 30.01 in 10.0 mi Variable 5.8 mph - N/A   Clear
10:54 AM 87.1 °F 89.9 °F 66.9 °F 51% 30.02 in 10.0 mi North 8.1 mph - N/A   Clear
11:54 AM 88.0 °F 90.3 °F 66.0 °F 48% 30.01 in 10.0 mi NNW 8.1 mph - N/A   Clear
12:54 PM 89.1 °F 92.1 °F 66.9 °F 48% 30.01 in 10.0 mi North 8.1 mph - N/A   Partly Cloudy
1:54 PM 90.0 °F 90.0 °F 61.0 °F 38% 30.00 in 10.0 mi NNW 8.1 mph - N/A   Clear
2:54 PM 91.0 °F 89.2 °F 55.9 °F 30% 29.99 in 10.0 mi Variable 6.9 mph - N/A   Scattered Clouds
3:54 PM 89.1 °F 88.2 °F 59.0 °F 36% 29.98 in 10.0 mi NW 3.5 mph - N/A   Clear
4:54 PM 87.1 °F 88.3 °F 64.0 °F 46% 29.98 in 10.0 mi NNE 3.5 mph - N/A   Clear
5:54 PM 82.9 °F 88.8 °F 73.0 °F 72% 29.98 in 10.0 mi Calm Calm - N/A   Clear
6:54 PM 81.0 °F 84.1 °F 69.1 °F 67% 29.98 in 10.0 mi Calm Calm - N/A   Clear
7:54 PM 75.0 °F - 69.1 °F 82% 30.00 in 10.0 mi Calm Calm - N/A   Clear
8:54 PM 75.9 °F - 66.9 °F 74% 30.02 in 10.0 mi Calm Calm - N/A   Clear
9:54 PM 73.9 °F - 66.9 °F 79% 30.04 in 10.0 mi ESE 3.5 mph - N/A   Clear
10:54 PM 72.0 °F - 66.0 °F 81% 30.02 in 9.0 mi Calm Calm - N/A   Clear
11:54 PM 70.0 °F - 66.9 °F 90% 30.04 in 6.0 mi Calm Calm - N/A   Clear